This is the latest recevied weather packets stored in our database for station/object HS2LXA-13. If no packets are shown the sender has not sent any weather packets the latest 10 day(s).
| Time | Temp. | Humidity | Pressure | Rain* | Wind** | Luminosity | Snow |
|---|---|---|---|---|---|---|---|
| 1778071163 | 31.11° C | 86% | 1008 hPa | 0 mm | - | 0 W/m² | - |
| 1778070562 | 31.11° C | 85% | 1007.9 hPa | 0 mm | - | 0 W/m² | - |
| 1778069962 | 31.67° C | 86% | 1007.8 hPa | 0 mm | - | 0 W/m² | - |
| 1778069360 | 31.11° C | 85% | 1007.8 hPa | 0 mm | - | 0 W/m² | - |
| 1778068754 | 31.67° C | 86% | 1007.7 hPa | 0 mm | - | 0 W/m² | - |
| 1778068152 | 30.56° C | 84% | 1007.6 hPa | 0 mm | - | 0 W/m² | - |
| 1778067552 | 31.11° C | 83% | 1007.4 hPa | 0 mm | - | 0 W/m² | - |
| 1778066950 | 31.67° C | 83% | 1007.3 hPa | 0 mm | - | 0 W/m² | - |
| 1778066348 | 31.67° C | 82% | 1006.9 hPa | 0 mm | - | 0 W/m² | - |
| 1778065748 | 32.22° C | 81% | 1006.9 hPa | 0 mm | - | 0 W/m² | - |
| 1778064645 | 31.67° C | 81% | 1007.1 hPa | 0 mm | - | 0 W/m² | - |
| 1778064046 | 31.67° C | 81% | 1007.2 hPa | 0 mm | - | 0 W/m² | - |
| 1778063444 | 32.22° C | 80% | 1007.1 hPa | 0 mm | - | 0 W/m² | - |
| 1778062841 | 32.22° C | 80% | 1007.2 hPa | 0 mm | - | 0 W/m² | - |
| 1778062238 | 32.22° C | 80% | 1007.4 hPa | 0 mm | - | 0 W/m² | - |
| 1778061641 | 32.78° C | 79% | 1007.1 hPa | 0 mm | - | 0 W/m² | - |
| 1778061037 | 32.78° C | 79% | 1007.3 hPa | 0 mm | - | 0 W/m² | - |
| 1778060434 | 32.78° C | 78% | 1007.4 hPa | 0 mm | - | 0 W/m² | - |
| 1778059832 | 33.33° C | 79% | 1007.1 hPa | 0 mm | - | 0 W/m² | - |
| 1778059231 | 33.33° C | 80% | 1006.6 hPa | 0 mm | - | 0 W/m² | - |
| 1778058630 | 33.89° C | 80% | 1006.7 hPa | 0 mm | - | 0 W/m² | - |
| 1778058028 | 34.44° C | 80% | 1006.8 hPa | 0 mm | - | 0 W/m² | - |
| 1778057425 | 33.89° C | 80% | 1007.1 hPa | 0 mm | - | 0 W/m² | - |
| 1778056824 | 34.44° C | 81% | 1006.8 hPa | 0 mm | - | 0 W/m² | - |
| 1778056221 | 33.89° C | 80% | 1007.1 hPa | 0 mm | - | 0 W/m² | - |
* Rain latest hour (hover to see other rain measurements)
** Current wind speed in m/s (hover to see current wind gust speed)